Wind_Speed
15 14 14 14 13 12 12 13 13 13 14 14 14 13 12 12 12 12 12 12 13 14 13 14 15 14 15 13 12 15 15 15 15 15 15 15 15 15 15 15 15 15 14 14 14 14 14 14 14 14 14 14 15 15 15 15 15 15 14 14 13 13 13 13 13 14 14 13 12 12 13 13 13 13 13 12 11 11 10 12 12 10 11 12 11
17 16 15 15 13 12 13 13 13 13 13 14 14 13 12 13 12 12 12 12 13 15 15 15 15 15 15 13 12 14 15 15 15 15 15 15 14 14 15 15 15 14 14 14 13 13 14 14 14 14 15 15 14 15 15 15 15 14 13 12 12 12 12 11 11 11 13 14 14 13 12 12 12 12 12 11 12 11 10 11 11 9 11 11 10
19 16 15 16 14 13 13 13 13 13 13 13 13 13 13 12 12 12 12 12 14 16 17 16 15 15 14 12 12 14 14 15 15 14 14 14 13 14 14 15 14 13 13 13 13 13 13 13 13 14 14 14 14 14 14 14 14 12 11 11 11 11 11 10 9 10 11 12 13 13 12 11 11 10 10 10 10 11 11 11 10 10 10 9 9
19 17 16 16 14 14 13 13 13 12 12 13 13 13 13 13 12 12 12 12 15 17 17 17 16 15 13 12 12 13 14 16 15 14 14 14 13 14 14 13 13 13 12 12 12 12 12 12 12 13 14 15 14 14 14 13 12 11 10 10 10 11 10 9 9 10 11 11 12 12 10 10 11 10 10 10 9 10 11 11 10 10 10 9 9
19 18 17 15 13 13 13 13 12 12 12 12 12 12 13 13 12 12 12 13 14 15 16 16 16 15 13 12 12 13 14 16 16 14 13 13 13 13 13 12 12 13 12 12 12 11 12 12 13 14 15 16 15 15 15 14 13 11 10 9 10 11 10 8 8 10 11 11 12 13 10 9 10 10 11 11 10 11 11 11 10 10 9 8 8
19 18 17 16 12 13 14 14 12 12 11 12 12 12 12 12 12 13 13 13 14 14 15 15 16 14 12 12 13 14 13 15 16 15 14 12 13 13 12 12 12 12 12 12 12 12 12 12 13 14 15 16 16 15 15 16 14 11 10 10 11 12 12 10 8 9 9 10 11 12 11 8 9 11 12 13 12 11 10 10 10 10 9 8 8
19 18 17 16 13 13 15 14 13 12 11 11 11 12 11 12 12 12 13 13 14 14 14 16 15 14 13 13 14 15 14 15 15 15 16 13 13 12 11 11 12 12 12 12 12 12 12 12 12 13 14 15 14 14 14 15 14 12 11 10 12 13 12 11 9 8 8 10 11 10 10 8 8 10 12 13 12 11 10 9 9 9 9 8 7
19 18 17 16 13 14 15 14 14 12 11 11 11 11 12 12 12 12 12 12 14 14 14 14 14 14 14 14 14 15 15 14 13 14 15 13 12 12 11 11 11 11 11 11 12 12 12 12 12 12 13 13 13 12 12 13 13 12 11 11 11 10 10 10 10 9 7 9 11 9 9 9 8 9 10 11 12 12 10 8 8 8 8 7 6
19 18 17 16 14 14 14 14 13 13 12 11 10 10 11 11 12 12 12 12 14 14 14 13 12 13 14 14 14 14 14 14 13 13 14 12 11 11 11 11 11 10 10 10 10 11 11 12 12 12 12 12 11 11 11 11 13 12 11 11 10 10 10 9 9 8 6 7 9 9 10 9 8 8 8 9 10 11 9 7 8 6 6 7 6
20 18 17 16 16 15 14 14 13 12 12 11 11 10 11 10 11 11 11 12 13 13 13 12 12 13 13 13 13 13 13 13 13 13 13 12 11 12 11 10 10 10 9 10 10 11 11 11 12 12 12 12 11 12 12 12 13 12 11 10 9 9 8 10 9 8 7 7 7 9 10 8 8 7 7 8 9 9 8 7 5 3 3 5 4
19 19 18 17 17 16 15 14 12 12 11 11 11 10 10 9 10 10 10 11 12 12 12 12 11 12 12 13 13 12 12 13 13 12 12 12 11 12 11 10 10 9 9 10 9 10 10 10 11 11 11 11 12 12 12 12 13 12 10 9 10 8 7 9 9 9 8 5 6 10 10 8 7 7 7 7 7 7 6 6 4 2 3 4 4
19 19 19 19 18 17 15 14 12 11 11 10 10 10 9 8 9 9 10 11 12 12 11 11 11 12 12 13 13 12 11 12 12 11 11 12 11 11 10 10 9 9 9 9 9 9 9 9 10 10 10 11 11 12 12 11 11 12 10 8 9 10 10 10 9 9 7 4 6 9 8 7 5 6 7 7 7 6 5 4 3 3 3 3 4
20 19 19 19 17 17 16 14 13 12 11 10 9 10 9 8 8 9 11 11 11 12 11 10 10 11 12 13 13 13 12 10 10 10 11 11 11 10 9 9 8 8 8 8 8 8 8 8 9 9 9 10 10 10 11 10 10 11 10 7 7 9 12 13 11 8 6 5 6 7 5 5 4 5 6 7 6 6 5 5 4 3 3 3 3
21 20 19 19 17 17 16 15 14 12 11 9 9 9 8 8 8 8 10 11 11 12 11 10 10 10 10 12 12 12 12 10 10 9 11 12 12 10 8 8 8 7 7 7 8 8 8 8 8 8 8 9 9 10 10 10 10 10 9 7 5 6 8 10 10 8 7 5 4 3 4 6 5 6 7 6 6 6 5 4 5 4 3 3 2
21 20 19 18 18 16 15 15 14 13 11 10 9 8 8 8 8 8 9 9 10 10 10 9 9 10 9 11 11 10 11 11 10 10 12 12 13 11 7 7 7 6 6 6 7 7 7 7 7 7 8 8 9 10 10 10 10 9 8 7 5 5 4 5 6 6 7 7 5 2 6 7 5 7 7 7 6 6 4 3 4 4 4 3 2
20 19 18 17 17 15 14 13 13 13 12 11 10 8 7 8 8 8 8 8 9 9 9 8 9 11 9 10 11 10 10 10 10 11 12 12 12 11 8 6 6 5 5 6 6 7 7 7 7 7 7 8 9 9 10 10 9 8 9 9 8 6 6 8 9 7 7 8 7 6 8 7 6 7 7 7 6 4 4 4 2 2 3 3 3
19 18 17 16 15 15 13 12 12 12 11 10 10 8 7 8 8 9 8 8 9 8 9 9 9 11 10 11 12 10 10 10 11 12 12 12 11 10 7 5 5 5 5 6 6 7 7 7 6 6 7 8 9 9 9 9 9 9 10 10 10 9 9 9 10 9 9 9 8 7 7 6 5 7 7 6 5 4 4 5 4 3 3 3 3
18 16 16 16 16 15 13 12 12 11 11 10 10 9 8 7 8 8 8 8 9 8 9 10 10 10 10 11 11 10 9 10 12 13 11 10 10 8 6 5 5 5 5 6 7 7 7 6 6 6 8 9 9 9 9 10 10 10 10 10 10 11 11 10 9 9 10 10 8 7 7 5 4 7 7 5 5 5 5 5 5 5 5 4 4
16 15 16 16 15 15 14 14 13 11 10 10 10 10 9 9 9 9 8 8 9 8 9 10 10 9 10 10 9 9 9 10 12 12 10 9 8 7 6 5 5 5 5 6 7 8 7 6 5 6 8 9 9 9 11 11 11 9 8 7 8 9 10 11 10 9 10 9 8 8 8 6 4 6 7 6 6 6 8 7 6 6 6 7 7
16 14 14 15 14 15 15 14 13 12 11 10 9 9 9 10 10 10 10 9 9 9 10 10 10 9 9 9 9 9 8 9 11 10 9 8 8 5 4 6 6 6 6 7 8 8 7 6 6 6 8 8 7 8 10 11 12 12 11 9 7 6 7 10 12 12 10 10 10 10 9 7 5 5 5 6 6 7 8 8 8 7 7 8 9
15 13 13 15 14 15 15 13 12 12 12 11 10 10 10 10 11 11 11 10 10 10 11 11 10 10 10 10 10 10 8 8 10 9 9 8 7 5 4 6 6 7 8 9 9 8 6 6 6 6 6 4 4 6 8 11 12 12 14 15 12 10 10 12 15 15 12 12 13 11 10 9 6 5 5 6 7 7 8 8 9 9 9 9 9
14 13 14 16 15 14 14 13 12 12 12 11 11 11 12 11 11 13 12 12 11 11 12 12 11 11 11 10 10 11 8 8 9 9 9 7 5 6 6 7 8 9 10 10 8 7 6 5 5 4 2 1 1 2 4 9 13 12 13 15 15 15 15 15 16 15 14 14 13 12 11 10 9 7 6 7 8 8 9 10 10 10 10 10 10
13 12 15 16 14 13 13 13 12 12 12 11 12 12 13 13 12 13 13 13 13 12 12 13 12 12 11 10 10 10 8 9 10 8 7 6 4 6 8 9 10 11 11 10 8 7 6 5 5 4 3 3 3 3 3 6 12 13 13 14 14 15 16 16 16 15 14 14 14 13 12 12 11 9 7 8 8 9 10 10 10 10 10 10 10
12 12 15 15 13 14 14 13 12 13 13 12 12 12 14 15 14 14 13 14 14 13 13 13 13 13 12 10 11 10 10 10 9 8 7 5 5 8 10 11 11 11 10 9 8 6 5 6 7 6 5 5 4 3 5 7 9 13 14 14 15 15 15 14 14 17 16 15 15 14 13 13 13 11 9 8 8 9 10 10 10 10 10 10 10
12 12 14 15 14 14 15 14 13 14 13 12 12 12 14 15 15 15 14 15 15 14 14 14 13 14 13 11 11 11 12 10 9 9 7 5 7 10 10 10 10 9 8 6 6 5 5 6 7 7 5 6 7 8 10 10 9 12 13 12 15 14 14 14 13 15 17 17 16 15 14 13 14 12 9 9 9 9 10 9 9 10 11 11 10
15 15 15 16 14 13 15 16 15 15 13 12 12 12 13 13 14 15 15 17 17 15 14 14 15 14 13 11 11 12 12 11 10 9 7 7 8 9 8 7 6 5 5 5 3 4 4 4 6 8 4 8 10 11 11 10 8 9 10 10 13 12 11 12 11 12 16 17 15 15 14 13 13 12 11 10 11 11 11 11 10 10 11 11 11
14 13 13 14 15 14 14 16 16 15 13 12 14 13 12 13 13 15 16 16 17 16 15 15 16 16 15 14 14 13 13 11 9 8 9 8 7 7 7 6 5 4 3 4 3 3 2 3 6 9 7 13 13 11 10 10 7 7 10 9 9 10 10 12 11 10 13 15 15 14 14 14 13 12 12 11 12 12 12 13 12 12 11 11 11
12 11 12 12 15 16 15 16 14 13 13 12 15 14 13 14 14 16 16 16 16 16 16 16 17 18 17 17 14 13 12 10 8 9 10 9 6 7 9 8 7 5 3 4 4 3 1 3 5 6 8 12 14 12 8 8 5 4 8 8 9 10 10 11 11 10 10 10 13 13 13 13 12 12 12 12 12 12 12 13 13 14 13 12 12
13 13 14 13 13 16 17 16 14 13 12 11 14 15 15 17 17 17 17 16 15 15 16 15 16 17 17 17 14 14 12 9 10 10 9 9 7 8 8 8 8 7 5 5 3 2 2 3 4 3 6 6 9 13 11 7 4 3 7 8 9 9 7 8 8 8 8 7 9 10 10 10 10 11 11 11 12 12 12 13 13 14 14 13 12
14 14 15 15 14 16 18 16 13 12 12 12 13 14 17 19 19 17 17 16 14 14 15 15 16 15 15 16 14 14 12 10 11 9 8 9 9 8 7 8 8 7 7 5 3 3 4 3 4 3 6 8 7 11 12 11 6 4 6 5 5 5 4 6 7 7 8 8 8 8 8 7 7 9 10 10 11 11 12 13 14 14 14 14 13
14 15 14 15 15 16 17 16 13 10 12 13 13 15 17 18 17 16 17 18 15 15 16 16 15 13 12 13 13 15 13 11 11 9 9 10 8 7 7 8 8 7 7 6 3 3 3 2 3 4 5 6 5 6 10 14 11 7 8 5 4 2 1 4 7 7 7 6 6 5 7 6 6 8 9 10 10 11 12 13 13 14 14 15 13
14 15 14 14 15 17 17 17 15 12 13 13 13 15 17 18 17 16 18 19 17 17 18 16 15 13 11 10 12 14 12 10 11 10 10 9 7 7 7 7 8 6 6 7 5 4 3 2 1 3 3 3 1 1 4 11 11 7 10 8 6 4 2 3 4 4 4 3 4 5 5 4 5 7 8 9 9 10 11 12 12 13 14 14 13
14 15 15 15 15 18 20 18 16 14 15 14 13 15 18 19 17 16 18 19 19 18 18 17 16 13 10 10 10 10 10 11 12 11 10 8 7 7 7 7 7 5 6 7 6 5 3 3 2 2 3 3 3 2 2 7 8 4 8 8 5 6 4 3 4 4 4 3 5 4 2 3 5 5 6 8 9 9 10 11 11 12 13 13 13
15 14 16 17 14 17 20 18 16 15 15 15 14 14 16 18 16 15 18 20 21 20 18 18 16 14 12 12 9 8 11 13 11 11 10 8 7 6 7 7 6 5 6 7 6 6 3 1 3 1 2 2 3 3 3 5 6 5 7 6 3 4 4 3 6 6 2 2 2 3 2 4 5 3 5 8 8 9 10 10 10 11 12 12 13
14 14 16 17 15 16 18 17 17 16 16 16 15 15 16 19 18 17 19 21 23 21 20 20 18 17 16 15 11 9 12 12 10 10 8 7 7 6 7 7 7 5 5 6 6 6 4 1 3 2 1 1 1 3 3 5 3 4 6 5 4 5 3 2 4 4 1 2 2 3 2 3 4 3 5 7 7 9 9 8 9 10 11 12 12
14 16 17 17 16 16 17 17 18 17 17 17 18 18 19 21 21 20 20 21 23 23 22 20 20 20 18 15 13 12 12 11 10 8 6 6 7 7 7 7 7 6 5 6 4 5 5 2 3 2 1 1 2 4 3 3 1 3 5 4 4 5 3 2 3 2 1 1 1 3 3 3 4 4 6 7 8 8 9 9 8 9 11 12 12
15 16 17 17 17 17 18 18 19 19 17 19 20 19 19 21 20 19 19 20 21 21 20 19 19 19 18 15 13 13 12 11 9 6 5 5 5 6 7 6 5 5 5 5 3 3 5 4 3 2 1 1 3 6 2 1 3 3 4 3 2 3 2 1 3 3 0 2 2 2 4 4 3 5 6 6 8 8 8 9 10 10 11 11 12
16 16 16 17 17 17 19 19 19 19 18 19 19 18 20 19 17 17 17 18 19 16 16 19 20 18 16 15 14 12 11 11 8 5 3 4 4 6 6 6 4 4 5 4 3 3 4 4 5 2 1 1 3 6 2 2 7 6 3 3 1 1 2 1 0 3 1 3 5 5 7 6 3 4 6 6 6 6 6 8 9 9 10 10 11
16 16 16 17 16 17 19 20 19 18 18 19 18 17 19 17 15 16 15 16 17 15 15 18 18 16 16 15 13 12 11 10 8 6 4 4 5 5 5 5 4 4 3 2 3 4 3 3 4 4 3 2 3 3 2 2 5 4 3 2 1 1 1 3 2 2 2 4 6 8 8 6 5 4 6 6 5 6 7 8 7 6 9 9 9
16 16 17 17 16 17 19 20 19 18 18 19 18 18 19 18 16 16 15 16 16 16 16 15 15 15 15 15 13 12 11 9 8 6 4 3 4 5 4 4 3 3 2 1 2 3 2 2 2 2 3 3 3 2 1 1 4 5 1 4 5 5 3 5 5 2 2 4 5 8 7 5 8 7 6 5 5 6 6 8 7 4 8 10 8
17 16 17 17 16 17 18 19 18 18 17 17 18 18 18 19 17 16 16 17 17 16 15 14 14 14 14 15 13 11 11 10 8 6 4 4 3 4 4 3 3 3 2 2 3 3 2 2 3 3 3 3 3 3 1 2 7 6 4 8 7 6 3 4 4 3 4 4 3 6 6 5 8 8 6 6 6 6 5 7 7 5 7 9 8
18 17 17 17 17 17 18 18 18 18 17 16 17 17 17 17 17 16 16 16 17 15 14 14 14 14 15 14 12 11 11 9 8 7 6 4 2 3 4 2 2 3 2 1 1 0 2 4 4 3 4 3 2 3 2 2 5 5 4 4 4 6 4 2 4 5 5 7 6 6 5 5 8 8 6 7 8 7 6 7 7 5 7 8 8
18 17 17 17 17 18 18 17 17 17 16 15 15 15 16 15 15 15 14 14 14 13 12 14 15 14 14 12 11 11 10 9 8 6 6 5 4 4 4 3 2 1 1 1 0 1 2 4 4 2 2 1 2 3 2 1 3 3 2 2 2 3 2 2 5 5 5 8 9 9 6 5 8 8 6 7 8 8 8 8 7 5 6 8 7
17 17 18 18 17 18 18 18 17 16 15 15 14 15 15 13 13 14 13 13 12 11 12 12 13 14 13 11 11 11 10 8 7 6 6 5 4 4 3 4 2 1 1 0 0 2 3 3 2 2 1 0 1 1 1 2 2 3 2 1 2 1 1 2 4 4 4 5 6 8 8 6 7 7 6 7 7 7 9 9 7 6 6 8 8
17 18 18 18 17 18 18 18 18 16 15 15 14 15 14 12 12 13 13 13 12 11 12 11 12 13 12 11 11 10 9 8 7 7 7 6 4 4 3 3 2 1 1 1 1 2 3 1 1 2 1 1 1 1 0 1 1 1 1 2 2 1 2 2 1 1 5 5 4 5 9 7 7 8 8 8 8 5 7 8 7 8 8 8 8
18 18 18 18 18 19 19 18 18 17 16 16 15 15 15 13 13 13 13 13 12 11 11 12 13 12 11 11 11 10 9 9 8 6 5 6 5 4 4 2 1 2 1 2 1 1 1 0 1 1 2 2 1 0 1 1 1 3 2 2 2 0 2 0 2 1 4 6 6 5 8 10 9 10 10 10 9 6 5 6 7 10 10 8 7
18 18 18 18 19 20 19 19 18 17 17 16 15 16 15 14 14 13 13 13 11 11 11 11 12 11 11 11 11 11 9 8 8 7 5 6 5 4 4 3 1 2 2 2 1 1 1 1 1 2 2 0 0 0 1 1 1 2 2 1 2 0 1 4 4 2 1 4 8 6 6 10 11 9 9 9 7 5 5 5 6 8 9 7 5
19 19 18 19 20 21 20 19 19 17 17 17 15 15 14 14 14 13 13 13 11 11 10 10 11 10 11 11 10 10 10 8 8 9 8 6 6 5 5 4 3 3 2 1 1 2 2 2 3 1 1 1 1 2 2 1 1 2 3 1 2 3 9 7 6 10 5 1 4 5 4 6 8 7 6 7 6 5 6 6 6 6 6 6 5
19 19 19 19 21 21 20 19 19 18 18 18 16 15 14 14 13 12 13 12 11 11 10 9 11 9 10 11 10 10 11 8 8 9 8 7 6 7 5 5 4 2 1 1 1 1 2 2 2 1 2 1 2 4 3 2 3 2 2 2 1 7 11 5 2 11 13 5 2 3 3 4 7 7 5 5 6 6 6 8 8 6 6 7 7
19 19 19 20 21 21 21 20 19 19 19 19 17 15 14 14 13 12 13 12 10 12 10 9 10 9 10 11 10 10 11 9 8 8 8 8 7 7 6 5 4 3 3 3 1 1 1 2 1 2 3 3 3 3 3 3 4 3 1 1 2 6 9 6 3 4 9 8 5 2 3 2 2 4 4 4 7 8 8 9 10 8 5 5 6
19 19 20 21 21 21 21 21 20 19 20 20 18 16 14 14 13 12 13 12 11 11 11 10 10 9 10 10 9 9 9 9 10 9 9 9 8 8 7 6 5 5 5 3 2 2 2 3 3 4 4 4 4 4 4 4 4 3 3 2 2 3 5 6 4 2 3 5 5 3 3 3 9 5 4 5 10 12 11 10 9 7 6 5 5
Wind_Direction
139 136 134 127 125 129 125 122 120 120 120 122 121 119 117 113 109 109 113 112 113 114 112 113 111 107 101 98 97 102 106 103 100 101 103 102 101 102 103 101 98 97 95 93 91 88 86 84 82 82 80 79 78 77 76 76 76 76 76 75 74 74 75 75 76 75 75 75 79 87 89 88 87 89 86 83 83 85 89 90 89 90 95 98 100
140 136 135 133 129 129 126 124 122 123 122 122 122 120 118 116 115 113 112 112 115 115 115 116 112 108 104 102 102 104 108 106 102 101 103 102 104 105 103 100 97 95 94 93 92 89 86 85 83 82 82 80 78 77 75 74 75 75 76 76 77 78 78 78 78 79 81 78 76 78 85 89 88 89 90 88 87 86 88 91 95 97 97 98 100
135 133 135 134 130 128 126 125 124 125 124 124 123 122 121 119 118 116 115 115 117 116 118 118 114 110 106 106 108 109 110 108 104 103 104 105 106 106 102 99 97 96 94 93 93 91 88 85 83 83 83 82 79 76 74 74 75 76 77 78 79 81 82 79 76 77 84 83 78 74 73 82 88 88 91 91 91 91 92 93 99 101 98 99 98
132 133 136 132 129 130 129 127 125 124 124 124 124 124 123 121 121 118 115 114 114 116 118 117 115 110 109 112 112 112 112 110 106 105 108 108 107 105 102 99 99 97 94 95 95 91 87 84 84 85 85 84 81 77 77 77 77 78 79 81 82 84 83 81 78 74 79 88 90 87 75 71 83 88 89 92 93 94 94 93 95 97 97 98 98
132 135 136 130 130 135 134 130 127 126 124 123 123 124 123 124 123 117 113 113 113 114 114 113 112 111 114 116 114 114 111 111 110 109 110 111 110 107 104 101 99 98 97 98 96 91 87 85 86 87 86 85 82 79 78 77 79 80 80 83 83 83 85 84 78 69 75 90 97 100 89 65 75 84 87 88 88 89 91 92 92 93 95 96 99
132 135 134 132 135 138 135 131 130 129 127 125 125 125 124 126 123 116 114 115 116 116 113 112 114 118 121 119 121 118 112 113 115 116 115 112 111 109 105 102 101 100 100 98 95 92 89 87 88 88 87 85 82 79 78 77 77 79 81 83 84 86 88 85 76 66 70 88 96 102 102 82 72 80 86 86 85 82 83 88 89 88 90 95 95
132 133 134 134 137 135 132 131 133 133 132 129 127 127 126 127 125 120 117 117 118 116 114 117 120 123 123 124 126 121 118 118 118 119 118 115 114 110 105 103 103 103 101 99 97 96 92 90 89 89 87 85 82 79 77 75 75 80 84 86 89 89 92 91 85 73 62 81 92 100 107 99 80 81 89 90 87 81 74 78 86 86 82 93 98
131 133 134 136 138 136 134 135 137 138 137 133 131 132 128 126 127 122 117 121 121 118 120 122 121 121 122 127 126 120 120 119 118 116 114 114 113 109 107 105 103 103 101 99 98 97 94 91 89 88 86 84 80 78 75 72 72 80 89 93 94 86 85 92 94 86 65 67 74 83 95 96 88 84 89 90 87 83 74 65 68 80 81 85 94
131 132 133 138 140 137 135 135 136 138 139 136 136 133 126 124 126 122 119 124 124 122 126 124 119 117 119 123 123 119 119 119 121 117 115 118 117 113 109 107 104 103 100 98 98 97 94 90 87 85 84 82 78 75 72 69 68 79 94 98 96 87 77 78 87 88 87 75 60 73 86 88 90 84 84 88 88 86 82 72 65 73 88 92 98
130 132 131 137 141 137 133 132 133 133 133 134 137 132 125 122 124 126 124 124 122 120 123 123 118 116 115 119 121 122 123 124 126 123 122 123 123 118 111 109 107 104 102 99 98 96 94 91 88 85 82 79 74 69 67 65 63 75 93 98 94 86 74 66 67 69 90 107 78 84 94 90 91 87 81 85 91 92 97 111 107 88 92 108 119
130 133 132 137 139 134 131 131 131 131 130 132 135 127 122 123 125 129 129 127 122 116 120 123 120 121 121 120 122 126 129 128 127 126 125 125 125 119 114 113 109 106 102 100 99 97 96 93 91 87 82 76 71 66 64 63 58 63 81 98 91 80 68 56 64 71 78 98 75 81 91 81 78 84 84 84 95 104 117 132 138 115 83 95 105
130 131 133 138 135 132 133 132 131 131 133 134 133 126 122 123 120 125 132 133 127 120 120 125 125 129 130 124 125 130 131 129 128 128 127 127 125 119 118 116 111 109 104 103 102 100 98 95 93 88 83 74 69 64 59 56 50 51 63 93 97 88 83 68 71 76 69 66 74 93 94 75 68 81 85 84 90 97 105 105 92 83 71 74 87
130 131 133 134 133 134 135 133 133 131 134 136 134 128 125 123 117 121 133 139 134 127 123 130 134 133 134 128 125 131 133 131 130 129 129 130 125 121 123 119 115 114 110 109 106 104 101 95 93 89 82 71 64 59 52 46 41 41 50 82 111 104 98 89 82 70 65 69 81 106 90 46 54 82 87 82 83 82 79 79 71 63 52 59 75
132 133 132 133 136 138 137 135 135 134 133 134 133 129 128 128 127 124 130 139 137 132 128 135 141 134 133 130 127 131 135 137 136 134 134 135 127 124 124 122 124 122 117 113 107 104 98 92 93 87 77 65 57 51 44 38 35 37 46 68 111 119 114 107 97 74 65 84 101 103 44 24 51 83 85 79 75 69 61 53 40 32 35 48 57
133 133 133 136 139 139 138 136 136 136 132 129 131 135 140 137 137 133 129 140 139 133 134 139 145 140 134 136 136 134 139 143 144 143 143 141 132 130 130 132 134 128 121 114 106 99 96 94 91 83 71 60 52 44 40 36 38 46 52 66 98 116 101 79 91 81 70 104 127 70 28 34 65 86 85 82 74 63 60 55 38 18 10 14 14
130 132 134 137 139 139 138 136 136 136 134 134 134 139 149 143 138 139 137 146 144 136 144 146 147 147 143 145 144 142 146 147 148 148 147 142 135 136 136 141 143 132 126 116 105 96 94 94 87 76 66 57 51 46 43 42 50 64 67 82 99 96 77 73 81 76 78 102 96 55 38 44 70 84 76 73 68 57 44 38 44 19 359 347 342
131 136 137 140 141 137 137 138 139 137 137 138 139 144 151 146 140 143 147 151 149 144 152 150 146 150 151 154 151 147 152 151 150 149 148 144 141 140 137 149 150 136 130 115 103 96 95 94 84 70 64 61 59 55 51 54 70 79 80 91 97 88 81 89 91 76 81 92 79 56 43 43 68 78 68 60 54 47 27 16 11 356 345 319 307
134 138 138 141 139 135 138 141 139 134 139 143 147 152 154 154 149 144 146 149 151 154 158 150 144 151 156 159 152 145 154 154 150 149 149 149 147 142 139 154 149 132 126 112 102 98 100 97 82 72 73 73 70 67 66 73 83 85 86 89 90 88 82 84 92 83 81 78 57 41 37 39 57 68 64 49 38 32 23 13 5 348 333 314 296
135 140 143 144 142 138 141 143 139 140 152 158 156 154 156 161 155 147 149 151 153 157 159 150 146 155 159 155 147 141 149 152 149 150 153 152 146 142 143 150 142 131 124 110 105 103 104 99 86 87 90 83 76 77 79 80 81 76 75 79 75 77 79 80 85 80 71 56 36 34 36 35 40 58 56 40 27 15 11 8 360 342 325 315 304
132 136 146 150 153 149 145 142 142 150 158 163 163 157 161 165 157 155 160 156 157 161 157 157 157 155 150 144 143 138 143 152 150 153 158 155 148 143 143 145 143 132 121 111 108 107 104 98 93 103 104 88 78 80 81 79 72 61 52 45 36 49 73 77 82 83 67 47 43 46 42 36 35 51 49 38 29 13 7 357 344 332 324 318 309
132 128 139 147 152 150 145 143 145 152 156 160 168 171 171 169 162 162 164 157 159 165 161 165 165 153 146 145 144 139 144 156 153 158 165 161 149 140 144 145 139 125 116 112 108 105 102 101 103 112 113 93 80 83 78 70 62 61 62 53 44 56 76 74 77 80 64 51 52 49 45 39 32 34 37 36 29 16 5 351 345 346 345 342 335
136 129 137 145 142 143 145 144 148 154 159 159 169 181 177 173 169 168 167 160 160 169 167 165 165 157 150 149 146 139 150 167 165 170 168 160 140 133 148 140 127 119 114 111 105 101 97 96 92 80 79 61 334 57 61 63 62 68 73 65 60 64 75 76 73 71 59 54 53 48 44 37 28 27 34 31 24 16 6 358 0 4 2 358 352
140 136 143 152 144 143 145 144 151 157 161 158 170 182 175 173 170 169 169 163 162 169 168 163 167 162 150 155 151 145 171 186 178 179 174 171 149 137 144 131 122 116 112 109 98 91 82 60 39 21 13 343 318 336 19 76 73 69 70 69 71 67 70 75 71 67 63 56 53 49 45 38 30 29 36 29 20 15 7 7 13 13 10 2 354
146 147 149 158 153 149 149 153 164 164 165 164 176 182 173 175 168 166 169 164 164 168 168 163 170 166 158 163 157 163 191 188 180 182 174 178 158 143 139 126 119 114 113 107 89 75 54 28 18 16 28 18 4 44 84 94 69 65 75 71 72 72 70 75 69 63 63 59 55 51 47 42 35 32 35 26 21 19 12 17 24 22 17 11 3
153 155 152 158 156 152 151 159 166 164 169 168 177 179 171 175 171 168 167 163 165 170 170 164 173 176 167 168 168 184 195 183 177 169 160 170 153 139 131 118 109 109 110 93 56 27 8 0 355 348 18 43 39 69 94 96 74 71 83 69 66 75 76 80 74 62 60 59 56 53 51 46 41 38 37 29 30 28 22 28 31 28 22 18 12
161 162 156 156 154 150 150 155 161 163 165 162 168 170 169 176 175 171 167 166 167 171 176 171 175 177 173 178 183 190 190 179 169 160 165 173 153 136 128 119 111 109 97 75 26 15 10 353 2 355 28 98 75 67 79 88 88 83 88 78 75 85 86 88 85 67 62 61 57 55 54 50 46 43 42 40 42 38 33 36 37 35 30 23 16
162 159 150 151 149 149 151 151 159 168 165 160 161 163 171 176 174 170 166 167 168 172 177 177 179 178 181 185 185 188 184 174 171 173 176 175 170 160 153 150 148 141 101 86 63 66 46 2 20 16 55 109 103 80 71 77 89 95 93 90 87 89 85 87 92 76 62 60 60 58 54 52 51 47 48 47 45 43 37 37 38 40 36 28 20
157 149 143 151 151 151 155 152 155 168 166 161 162 163 168 169 169 165 162 163 168 174 173 177 184 181 182 182 179 182 177 171 183 186 177 181 190 171 164 162 153 146 121 101 75 57 22 355 3 10 61 100 112 106 102 82 67 78 85 88 90 87 78 79 94 89 67 59 59 60 55 50 51 49 47 47 45 45 39 36 37 37 36 32 24
155 153 148 154 156 149 152 155 156 164 161 157 162 165 164 164 165 160 159 162 167 173 171 175 182 181 181 177 174 179 182 183 186 182 178 182 174 164 169 162 142 130 125 116 94 38 13 20 7 11 56 76 112 117 124 104 61 53 69 79 87 86 92 96 107 97 77 72 59 54 55 48 46 46 41 38 39 41 39 35 34 34 34 31 27
153 153 147 149 153 143 143 152 158 161 157 156 161 162 162 162 163 161 158 160 163 167 169 173 177 180 180 174 175 181 187 189 183 179 175 170 170 172 160 145 133 125 128 119 102 60 34 22 20 24 40 36 70 104 117 112 105 115 92 87 87 83 108 117 113 82 59 69 65 40 41 42 40 43 37 31 28 30 33 31 29 29 30 30 27
151 146 141 146 147 139 140 148 154 158 152 154 158 159 163 163 163 162 157 159 164 164 168 174 173 173 176 178 185 187 189 188 177 170 166 166 178 176 144 136 132 124 133 129 126 92 54 15 31 22 37 48 62 93 121 127 126 146 138 124 131 121 78 126 117 78 51 68 77 43 32 41 43 39 34 30 24 23 25 25 24 23 24 26 25
147 142 139 145 144 139 141 144 148 155 148 147 151 154 161 164 163 161 158 163 166 165 168 173 171 169 177 186 186 191 196 185 168 163 166 171 174 161 144 137 127 121 136 132 135 124 114 169 102 20 35 62 47 63 139 133 124 150 151 140 164 158 78 142 144 66 63 67 48 41 34 31 29 21 19 25 23 21 23 23 24 20 19 21 22
142 138 141 145 143 140 140 142 145 147 148 148 148 148 154 160 160 158 160 164 167 169 169 173 178 173 175 182 179 191 194 173 165 166 165 171 169 154 143 133 128 135 134 125 140 150 142 170 159 351 1 38 49 77 138 123 110 113 132 136 158 147 113 133 124 77 81 50 16 15 4 360 17 13 9 21 22 21 25 27 28 24 18 16 18
134 139 145 143 141 140 138 142 145 144 149 150 147 144 149 154 155 160 164 167 170 171 168 170 173 169 171 178 178 187 176 163 165 167 161 167 167 152 144 136 136 141 134 141 169 177 167 170 174 293 349 51 44 28 28 93 107 71 88 122 122 111 130 128 99 95 89 86 45 357 331 350 9 11 1 13 18 19 24 29 31 26 21 15 14
137 146 143 138 140 140 138 143 146 147 149 149 149 149 153 156 156 163 170 171 173 172 167 164 161 167 176 179 180 177 164 158 163 165 164 167 158 149 147 142 144 143 152 175 186 177 165 129 169 178 341 182 313 328 27 63 102 71 70 105 79 67 104 118 105 112 56 98 82 358 352 342 359 353 338 355 7 14 19 21 26 25 24 20 12
145 143 139 140 140 140 141 144 148 149 149 149 152 152 155 158 158 163 167 169 173 174 170 165 163 171 176 176 177 168 158 160 164 162 165 170 160 152 148 145 150 143 159 181 171 165 173 159 163 182 268 201 347 3 66 51 18 119 110 104 82 66 64 57 77 99 353 40 21 352 359 333 340 335 335 350 354 8 13 3 20 31 24 21 13
143 140 142 142 139 143 145 145 148 150 151 150 151 153 153 153 156 161 165 169 172 173 173 170 169 171 170 171 170 161 158 161 165 167 168 170 158 144 143 148 154 150 163 179 172 169 180 180 167 135 71 142 345 353 16 354 22 87 123 105 94 79 52 67 63 60 30 350 307 292 329 319 317 322 328 343 341 354 6 355 14 26 15 18 15
140 143 144 141 141 146 145 145 146 147 151 149 147 151 152 153 156 160 167 173 170 170 175 171 168 167 166 166 163 158 158 158 164 173 155 144 137 133 140 147 150 153 164 187 201 178 174 179 171 160 138 197 335 352 355 83 68 56 52 59 77 11 3 232 358 38 59 327 299 296 318 318 325 327 321 329 328 332 348 354 9 11 359 12 18
144 145 142 141 144 140 139 144 145 147 150 149 148 149 152 156 162 162 164 167 162 166 175 170 163 163 162 159 157 157 158 157 162 166 143 129 133 127 131 141 140 146 160 194 194 170 180 183 166 181 189 207 308 348 6 70 79 45 15 28 233 217 300 242 262 358 14 313 299 311 326 318 316 320 318 325 321 318 332 351 7 3 349 2 16
143 143 141 142 144 138 139 146 147 150 150 151 154 153 156 161 168 170 168 170 170 172 176 169 158 155 156 155 155 157 159 158 161 169 158 134 134 130 130 136 134 139 151 153 136 140 172 193 176 192 180 195 243 210 197 172 108 77 68 249 228 180 209 259 263 295 316 307 311 328 334 311 309 314 312 309 310 323 326 338 359 6 342 353 10
142 144 145 145 148 144 145 148 148 150 152 155 159 159 162 164 170 170 166 173 178 175 171 161 149 148 153 155 154 159 160 157 163 171 161 138 125 126 133 138 133 134 124 87 92 116 151 204 222 224 213 214 222 208 228 163 128 118 191 240 236 203 238 285 261 256 280 277 282 322 326 308 313 317 314 307 307 327 324 320 349 2 329 343 359
146 151 151 149 152 150 150 150 150 154 158 161 162 162 163 164 167 165 161 164 167 169 166 152 145 148 155 154 153 161 160 157 165 164 160 168 161 133 137 150 132 128 139 80 53 150 177 205 221 236 227 218 234 233 236 150 132 137 196 231 244 243 253 269 248 245 260 266 261 284 306 308 312 310 304 302 299 317 328 317 332 345 322 331 343
153 157 154 153 155 153 153 152 153 159 162 162 162 160 162 164 162 161 161 157 158 164 157 147 146 149 153 155 158 164 160 160 167 160 163 180 169 146 147 158 139 118 150 113 247 228 226 222 221 243 240 218 262 237 221 210 141 134 214 211 197 258 288 302 281 271 264 273 271 268 277 293 299 302 306 301 300 312 314 306 313 329 318 313 324
160 160 157 157 157 155 156 156 157 161 161 161 161 158 159 161 158 158 159 153 153 153 145 145 150 150 155 159 162 163 159 159 165 167 176 173 152 163 164 147 145 176 169 139 251 235 237 242 228 204 210 106 220 210 249 260 171 157 215 172 97 27 316 245 263 269 252 261 276 264 256 279 295 288 291 287 291 309 309 309 313 310 300 298 310
166 164 162 163 159 158 159 159 159 159 160 161 162 159 155 154 153 155 153 148 149 151 149 150 152 154 159 162 162 162 162 162 166 178 180 164 158 186 175 131 143 210 234 267 258 256 240 264 311 195 147 51 117 125 317 266 278 258 214 140 101 23 253 202 152 269 254 249 292 284 249 252 278 268 256 265 273 284 303 316 316 308 308 304 302
171 167 167 166 159 160 161 160 160 159 160 162 163 159 156 153 152 152 150 148 150 159 160 155 158 165 163 161 161 164 171 166 167 178 163 153 172 193 186 168 189 187 229 285 244 250 247 216 33 106 82 52 100 153 291 257 320 335 315 163 124 86 239 167 89 290 280 267 277 290 260 251 258 261 255 268 284 284 295 309 310 316 318 306 290
173 170 170 167 159 160 162 161 161 159 160 164 162 160 161 159 157 155 154 154 157 165 169 162 162 163 156 158 161 166 177 169 164 172 162 160 172 184 193 204 238 212 214 257 242 222 236 194 127 86 82 52 17 300 308 300 293 354 347 192 175 148 5 31 25 341 289 268 269 261 257 252 246 255 262 271 290 303 312 303 296 315 320 307 298
174 173 172 166 158 160 163 162 162 161 162 164 164 165 166 165 167 164 160 164 165 166 171 165 156 154 154 159 160 165 173 175 174 176 182 187 179 186 198 199 240 268 226 227 293 248 229 186 166 153 224 219 313 289 291 296 276 359 24 51 190 65 40 32 353 330 317 232 268 255 249 267 257 254 268 274 281 298 312 298 285 308 318 313 309
176 175 173 166 159 161 164 164 164 163 164 165 166 169 170 170 174 170 167 172 168 164 169 161 155 160 161 161 167 172 172 182 192 181 183 195 189 192 197 197 224 256 238 272 326 257 233 172 161 222 267 242 239 269 298 295 292 330 57 58 91 76 66 99 199 336 333 317 288 245 233 278 277 269 272 279 278 279 289 284 277 288 309 313 301
178 175 173 166 161 164 166 167 167 165 166 167 169 171 172 175 179 174 172 175 168 166 171 162 158 161 159 163 173 178 174 182 197 188 185 192 192 198 199 199 214 213 222 246 234 194 254 283 274 233 242 251 245 272 294 285 306 331 319 337 61 96 91 107 143 350 332 306 305 309 249 245 325 300 289 297 293 284 276 276 277 272 279 301 295
180 175 174 167 164 167 168 170 170 168 169 169 171 174 174 177 184 178 173 175 170 172 174 166 165 166 167 173 177 182 183 186 195 193 190 196 197 200 203 200 206 208 211 225 222 191 196 252 255 211 217 248 255 268 281 276 293 311 289 299 63 120 124 106 116 215 284 290 293 303 284 51 55 10 301 300 298 293 280 277 285 274 260 265 268
Height
798 797 799 798 800 800 801 801 801 802 802 802 802 803 803 804 804 805 805 806 806 807 808 808 809 809 810 812 813 813 814 816 817 817 818 819 819 820 820 821 821 821 821 821 821 821 822 821 822 821 821 821 821 821 822 822 822 822 822 822 822 822 822 822 821 821 821 821 821 821 822 821 821 821 822 822 822 822 822 823 823 823 823 823 823
797 798 799 799 801 801 803 802 803 803 803 804 804 805 805 806 806 807 807 807 808 808 809 810 810 810 812 813 814 814 815 817 818 818 819 820 821 821 821 822 822 822 823 823 823 823 823 823 823 823 822 822 822 823 822 822 822 822 823 823 824 824 823 823 822 821 822 822 822 823 823 822 822 822 822 822 822 823 823 823 824 824 824 824 824
796 798 799 800 801 801 803 803 804 803 804 805 805 806 806 807 807 809 808 809 809 809 810 811 812 812 813 815 815 816 817 817 818 819 820 821 822 822 822 823 823 824 824 824 824 824 824 824 825 824 824 823 823 824 823 823 823 823 824 824 824 824 824 823 822 823 823 824 824 824 824 823 823 822 822 823 823 823 824 824 825 825 825 825 825
796 798 799 800 801 802 803 804 805 805 805 805 806 807 807 809 809 810 810 810 810 811 812 812 813 813 815 816 817 817 818 818 819 820 821 822 823 824 824 824 824 825 825 825 825 825 826 826 826 825 825 825 825 825 825 824 824 825 824 825 825 825 824 823 824 824 825 825 824 825 825 824 823 823 823 823 824 824 825 825 826 826 826 826 826
796 797 799 801 802 803 804 804 805 805 806 806 807 808 809 810 810 811 811 812 812 813 813 814 814 815 817 816 817 819 819 819 819 821 821 823 824 825 825 825 825 826 826 827 827 827 827 827 827 826 826 826 826 826 826 826 825 825 825 825 825 825 824 824 825 826 826 825 825 825 825 825 824 824 824 824 825 826 826 827 827 827 827 827 827
796 797 799 801 802 803 804 805 805 805 806 807 808 809 810 810 811 812 813 813 813 814 815 815 816 816 817 817 818 820 820 819 820 821 821 823 825 826 826 826 826 827 828 828 828 828 828 828 828 828 827 827 827 828 827 827 827 826 826 826 825 825 825 825 826 827 826 826 826 825 826 826 825 825 825 825 826 827 827 827 828 828 828 828 828
796 798 799 800 802 802 803 804 805 805 806 808 809 810 810 811 812 813 814 814 815 816 816 817 817 818 818 819 819 820 820 819 821 821 821 823 826 827 827 827 827 828 828 829 829 829 829 829 829 829 828 829 829 829 829 829 828 827 827 826 826 825 825 826 827 827 827 827 827 826 826 826 826 826 826 827 828 828 828 828 828 829 829 829 829
796 799 799 800 802 802 803 804 805 805 807 808 809 810 811 812 812 813 814 815 816 817 817 818 819 819 819 820 820 821 820 820 822 822 822 825 827 828 828 828 828 829 829 830 830 830 830 830 830 830 830 830 830 830 830 830 829 829 828 827 826 825 826 827 828 828 827 827 827 827 826 826 827 827 828 829 829 829 829 830 829 830 830 830 830
797 798 799 801 801 803 804 804 805 805 807 808 809 810 811 812 813 814 815 816 817 818 818 819 820 820 820 820 820 822 822 822 823 824 825 827 829 829 829 829 829 829 830 830 831 831 831 831 831 831 831 831 831 831 831 831 830 830 829 828 827 826 826 826 828 829 828 827 827 827 827 828 828 829 830 830 830 830 830 831 831 831 831 831 831
797 798 800 801 801 803 804 804 805 805 807 808 809 810 812 813 814 815 816 817 817 818 819 819 820 820 821 821 822 823 823 824 826 826 827 828 830 829 829 829 829 830 830 831 831 832 832 832 832 831 832 832 832 832 832 832 831 831 830 830 828 827 826 826 827 829 830 829 828 828 828 829 829 830 831 831 831 831 831 832 832 832 832 832 831
796 798 800 801 802 803 803 805 805 806 807 808 810 811 813 814 815 816 816 816 817 818 819 820 821 821 822 822 823 824 825 826 827 828 827 829 830 830 830 830 830 830 830 831 831 832 832 832 832 832 832 832 833 833 833 833 832 832 831 831 830 829 828 827 827 828 830 829 829 828 828 829 830 831 831 832 832 832 832 832 833 833 832 832 832
797 798 800 801 802 803 804 805 806 807 808 809 811 812 813 814 815 816 816 817 817 819 820 821 822 823 823 823 824 825 826 827 828 829 829 830 831 831 830 830 830 831 831 831 832 832 833 833 833 833 833 833 833 833 833 833 833 833 832 832 831 830 829 829 828 829 830 829 829 828 829 829 830 832 832 833 833 833 833 833 833 833 833 833 833
798 799 800 801 802 804 804 805 807 808 809 810 811 812 814 814 816 816 817 818 819 820 821 823 823 824 824 824 825 827 828 828 829 830 831 831 832 832 831 831 831 831 831 831 832 832 833 834 834 834 834 834 834 834 834 834 834 834 833 833 832 831 831 830 830 831 831 831 830 829 829 830 831 832 833 833 833 833 833 834 834 833 833 833 833
798 799 800 801 803 805 805 806 807 808 809 811 812 813 814 815 816 817 818 818 820 821 822 823 824 825 825 826 827 828 829 829 830 831 832 832 832 833 833 832 831 832 831 832 832 832 833 834 834 834 835 834 835 835 835 835 834 834 833 833 832 832 832 831 832 833 832 832 831 831 831 831 831 833 833 834 834 834 834 834 834 834 833 833 833
797 798 800 801 803 805 806 807 807 809 810 811 812 813 814 815 816 817 818 819 820 821 822 823 824 825 826 828 829 830 831 830 831 832 833 833 833 833 833 833 832 832 832 832 832 833 834 834 835 835 835 835 835 835 835 835 834 834 833 833 833 832 833 833 833 834 833 833 832 832 832 832 832 833 834 835 835 835 835 835 835 834 834 833 833
797 798 800 801 803 805 806 807 808 810 811 812 813 814 814 815 817 817 818 819 820 821 822 824 825 826 828 830 830 831 832 832 833 834 834 834 834 834 833 834 833 833 832 833 833 833 834 834 835 835 835 835 835 836 835 835 834 834 833 833 833 833 833 833 834 834 834 834 833 833 833 833 833 834 835 835 836 835 836 835 835 835 834 834 833
797 799 800 801 803 805 806 808 809 810 811 813 814 815 815 816 817 818 819 819 821 823 823 825 826 827 829 830 831 831 832 833 834 834 835 835 835 835 834 834 833 833 833 833 833 834 834 835 835 836 836 836 836 836 835 835 834 834 834 834 833 833 833 834 835 835 835 835 834 835 834 834 834 835 836 836 836 836 836 836 835 835 834 834 833
797 799 800 802 803 805 807 808 810 811 812 812 814 815 816 817 818 819 820 820 822 824 824 826 827 828 830 831 831 832 833 833 834 835 836 836 836 835 835 834 834 833 833 833 834 834 835 835 836 836 836 836 836 835 835 834 834 834 834 834 834 834 834 834 835 836 836 835 835 835 834 835 835 836 836 837 836 836 836 836 835 835 834 833 833
797 799 801 803 804 806 807 809 810 811 812 812 813 815 816 818 819 820 821 821 823 824 825 826 827 829 830 831 831 832 833 834 835 836 837 837 836 836 835 835 834 834 834 834 834 835 835 836 836 836 836 836 836 835 835 834 834 835 835 835 835 834 834 835 836 837 836 835 835 835 835 835 835 835 836 837 837 836 836 835 835 835 834 833 832
797 799 801 803 804 806 807 810 811 811 812 813 814 815 816 818 820 821 821 823 824 825 826 827 828 829 830 830 831 833 834 835 836 837 837 838 837 837 836 835 835 834 834 834 835 835 836 836 836 836 836 836 836 835 835 835 835 835 835 835 834 835 834 835 837 837 836 836 836 835 835 835 835 835 836 837 837 836 836 835 835 834 833 832 831
797 799 801 803 804 806 808 810 811 811 812 813 814 815 817 819 821 821 822 824 825 826 827 828 828 828 829 829 831 833 834 836 837 838 838 838 837 837 837 836 835 835 835 835 835 836 836 836 836 836 837 837 836 836 836 836 836 836 836 835 834 835 835 837 837 837 837 836 836 835 835 835 835 835 835 836 836 836 835 835 834 833 832 831 830
797 799 801 802 804 806 808 809 810 811 812 814 814 815 817 819 821 822 823 825 826 827 827 828 828 828 829 830 831 831 834 837 838 838 838 838 838 837 837 837 836 836 836 836 836 836 836 836 837 837 837 837 836 836 837 837 837 837 836 836 835 836 837 837 837 837 837 837 837 836 836 836 835 835 835 836 836 836 835 834 833 833 832 831 830
797 800 801 802 804 806 808 809 809 810 812 814 814 815 817 818 821 822 824 826 826 827 828 828 829 829 829 831 832 832 836 839 838 838 838 838 838 838 838 837 837 836 836 836 836 836 837 837 837 837 837 837 836 837 837 837 838 837 837 837 837 837 837 838 838 838 838 838 838 837 837 837 836 835 835 836 836 835 835 834 833 833 832 831 830
795 798 800 803 804 806 809 809 808 810 812 813 814 815 817 818 821 822 824 826 827 826 828 829 829 830 830 831 832 835 839 839 838 839 838 839 838 838 838 837 837 837 837 837 837 836 837 837 837 837 837 837 836 837 837 838 839 838 838 838 838 839 839 839 839 838 839 839 839 839 838 838 837 836 836 836 836 835 835 834 833 832 832 831 830
793 796 799 802 804 806 809 809 808 809 812 813 813 815 816 818 820 822 824 826 827 827 828 830 830 830 831 832 834 837 840 838 838 838 838 839 839 839 838 838 838 838 838 837 836 836 836 837 837 838 838 838 837 837 838 839 840 839 839 840 840 840 840 840 839 839 840 840 840 840 839 838 838 837 837 837 836 835 835 834 833 832 832 831 829
792 795 798 800 803 806 808 808 809 810 812 813 813 815 816 818 820 822 824 826 827 828 829 831 831 831 832 833 836 838 838 838 838 838 839 839 839 839 839 839 839 838 838 837 836 836 836 837 837 838 838 839 839 839 839 839 840 840 840 840 840 840 840 840 840 840 840 841 841 840 840 839 838 838 837 837 836 836 835 834 833 832 831 830 829
791 793 796 799 802 804 806 807 808 810 811 813 813 815 817 818 820 822 825 826 828 829 830 830 831 832 833 835 837 838 838 838 838 838 839 839 839 839 840 840 839 839 838 837 837 836 837 837 837 838 838 840 841 841 840 840 840 840 841 841 840 840 840 841 841 841 841 841 841 841 841 840 840 839 838 837 836 836 835 834 833 832 831 830 829
791 793 795 798 801 803 805 806 807 809 810 812 813 815 817 819 821 823 826 828 829 829 830 831 832 834 835 836 837 838 838 838 838 839 839 839 839 840 840 840 840 840 839 838 837 837 837 837 837 837 839 841 842 842 841 840 839 840 842 841 841 841 841 841 841 841 841 841 842 842 842 842 841 840 839 838 837 836 836 835 833 832 831 830 829
790 793 795 798 801 803 804 805 806 808 809 811 813 814 816 818 821 823 825 828 829 829 831 831 833 834 835 836 836 837 838 839 839 839 839 839 840 841 840 841 840 840 839 838 838 837 837 837 838 837 838 841 841 843 844 841 840 840 841 841 841 841 841 841 841 841 841 841 841 841 842 842 842 841 841 840 838 837 836 835 834 833 832 830 829
790 792 795 798 801 803 804 805 805 807 810 811 813 814 815 817 820 823 825 827 828 829 831 831 833 834 835 835 836 837 838 838 839 838 839 840 840 840 840 840 841 840 839 838 838 838 837 837 837 837 838 840 841 844 846 844 842 841 841 841 841 841 841 842 842 841 841 841 840 841 841 842 842 842 841 841 840 839 838 837 835 834 833 831 830
788 791 794 797 800 802 804 806 806 807 810 811 813 814 815 817 820 822 824 825 827 829 830 831 832 833 834 835 836 837 837 838 839 839 840 840 840 840 840 840 840 840 839 839 839 838 838 838 837 837 838 839 841 843 845 843 842 843 842 842 841 841 841 842 842 841 841 842 841 841 842 842 842 842 842 841 841 840 839 838 836 835 834 833 831
788 791 795 798 800 802 804 806 807 808 810 811 813 814 815 817 820 822 824 826 827 829 831 830 831 832 833 835 836 836 837 838 839 840 840 840 840 840 840 840 840 840 840 839 839 839 838 838 837 837 838 839 840 841 842 843 843 844 843 843 841 841 841 841 842 842 842 842 842 841 842 842 842 842 843 842 841 840 839 838 837 836 835 834 832
787 791 794 797 800 802 804 806 808 809 810 811 812 814 816 818 820 821 824 826 828 830 831 831 831 831 832 834 836 836 837 838 839 840 840 840 840 840 840 840 840 840 839 839 839 839 839 838 838 838 838 839 840 840 841 842 844 844 844 843 842 842 842 842 842 843 843 843 842 842 843 843 843 843 843 842 842 841 840 838 837 836 835 834 833
787 790 793 796 799 802 804 806 808 809 810 812 813 814 817 819 820 821 824 826 828 829 831 833 832 831 832 835 836 837 838 839 839 840 840 840 840 839 840 840 840 840 839 840 840 840 839 838 838 838 839 839 840 840 840 841 843 844 844 844 843 843 843 843 844 844 844 844 844 844 845 845 844 844 843 842 842 841 840 839 837 836 835 835 834
788 790 792 795 799 801 803 806 807 809 810 812 813 815 817 819 821 822 824 826 827 829 831 833 834 835 836 837 838 838 838 839 839 839 839 840 840 839 839 839 840 840 840 840 840 840 840 839 839 839 839 840 840 840 841 841 842 843 844 844 844 844 844 844 845 845 845 845 846 846 846 846 845 844 843 842 842 841 840 839 838 837 836 835 834
787 789 792 795 798 800 803 805 807 809 810 812 813 814 816 818 820 822 823 825 827 829 831 833 835 837 838 838 838 838 838 839 839 839 840 839 839 839 839 839 839 840 840 840 840 840 840 840 840 840 840 840 841 841 842 842 842 843 843 844 844 844 845 845 846 846 846 846 846 846 846 846 845 844 843 842 842 841 840 839 838 838 837 836 835
787 789 792 795 797 800 802 804 806 808 810 811 813 814 816 818 820 821 823 824 826 829 830 832 834 835 836 837 838 838 838 839 839 839 839 839 839 839 839 839 839 839 840 840 840 840 840 840 840 840 840 841 841 842 842 843 843 842 843 844 844 844 845 846 846 846 846 846 846 845 845 845 844 844 843 842 842 841 841 840 839 838 838 837 836
787 790 792 794 797 799 801 804 806 808 809 811 813 815 816 818 819 821 822 823 825 827 829 831 832 833 835 836 836 837 837 838 838 838 838 839 839 839 839 839 839 839 840 840 840 840 840 840 840 841 841 842 842 842 843 843 844 843 843 844 844 845 846 846 846 846 845 845 844 844 844 843 843 843 843 843 842 842 841 840 840 839 839 838 837
788 790 792 794 796 798 801 803 806 807 809 811 813 815 816 818 819 820 822 823 824 825 828 829 830 832 833 834 835 836 837 837 838 838 838 838 838 838 838 839 839 839 839 839 840 840 840 841 841 841 842 843 843 844 844 844 845 845 845 845 845 846 846 846 846 846 845 844 844 843 842 842 842 843 843 843 842 842 841 840 840 839 839 838 837
787 790 792 795 796 798 801 803 805 807 809 811 812 814 816 817 818 819 821 822 824 824 826 827 828 830 831 832 834 835 836 837 837 837 837 837 837 838 838 839 839 839 840 839 840 840 840 841 841 842 843 843 844 844 845 845 846 846 845 846 847 847 847 846 846 846 845 844 843 843 841 841 842 842 842 842 842 842 841 840 840 839 839 839 838
788 790 792 795 797 798 801 803 805 807 808 810 811 813 814 816 817 818 820 821 823 824 825 826 827 829 830 832 833 834 835 836 837 837 837 837 837 838 839 839 840 840 840 840 840 840 841 842 842 842 843 843 844 844 845 846 846 846 845 847 847 847 847 846 846 845 844 844 843 842 841 842 842 841 842 842 842 842 842 841 840 840 840 839 839
788 791 792 794 797 798 800 802 804 806 808 809 810 812 813 815 816 818 820 821 822 823 824 825 826 828 830 831 832 833 834 835 836 836 837 837 837 838 839 839 840 840 840 841 841 841 841 842 842 842 843 843 844 844 844 845 846 846 846 847 848 847 846 845 845 845 843 843 842 841 841 842 842 841 841 841 841 842 842 841 841 840 840 839 839
787 790 792 794 796 798 800 801 804 805 807 808 809 811 812 814 816 817 819 820 821 822 823 824 826 828 829 830 831 832 833 834 835 836 836 837 837 838 838 839 839 840 841 841 841 841 842 842 842 842 842 843 844 844 844 844 845 845 846 848 848 847 847 845 844 845 843 842 841 841 842 842 841 841 841 841 841 841 841 841 841 840 840 840 839
787 789 791 794 795 797 799 801 803 805 806 808 809 810 812 813 815 816 818 819 821 821 823 824 825 827 828 830 831 831 833 833 834 835 836 836 837 837 838 839 839 840 841 841 841 841 841 842 842 842 843 843 844 844 844 844 844 844 845 848 848 850 852 848 844 845 844 843 841 841 841 841 840 841 841 841 841 841 840 840 840 839 840 839 839
786 788 790 792 794 797 799 800 802 804 805 807 809 810 811 813 814 815 817 818 820 821 822 824 825 826 828 829 830 831 832 833 834 835 835 835 836 837 838 838 839 840 841 841 841 841 841 842 842 842 843 843 844 844 844 844 844 844 844 847 850 854 853 847 845 847 844 843 843 841 841 841 841 841 841 841 841 841 840 839 839 839 839 839 839
785 787 789 791 793 796 798 799 801 803 805 807 808 809 810 812 813 814 816 817 819 820 821 822 824 825 826 828 829 830 831 832 833 834 834 835 836 837 838 838 839 840 841 841 841 841 841 842 842 842 843 844 844 844 845 844 844 844 844 845 848 851 849 846 848 850 846 845 844 842 841 841 842 842 841 842 841 840 840 839 839 839 838 839 839
783 786 788 789 792 795 797 799 800 802 804 806 807 809 810 811 812 813 815 816 817 819 820 821 822 824 825 827 828 829 831 832 833 833 834 834 835 836 837 838 839 840 840 840 840 841 841 841 842 842 843 844 844 844 845 845 845 845 845 845 846 847 848 848 850 852 851 848 844 842 841 841 843 842 842 842 841 840 840 839 839 839 838 838 839
782 784 786 788 791 794 796 797 799 801 803 805 807 808 810 811 812 813 814 815 816 817 819 820 821 823 824 826 827 828 830 831 832 833 833 834 835 836 837 838 839 839 840 840 840 841 841 841 842 843 843 844 845 845 845 845 845 845 845 845 846 848 850 850 851 854 854 850 846 843 842 842 842 842 842 841 841 841 840 839 839 838 838 838 838
780 782 784 787 790 793 795 797 798 800 801 804 806 807 809 810 811 812 813 814 815 817 818 819 821 822 823 825 826 827 829 830 831 831 832 834 834 836 836 837 839 839 840 840 840 841 841 841 842 842 843 844 845 845 845 844 844 845 845 845 847 848 850 850 850 852 854 852 850 845 842 842 841 842 842 841 841 841 839 839 838 837 837 837 838
778 781 783 786 790 792 794 796 797 799 800 802 805 806 808 809 810 811 812 813 814 816 818 819 820 821 822 824 825 826 828 829 830 831 832 833 834 835 836 837 838 838 839 840 840 840 841 841 842 842 843 844 844 844 844 845 844 845 845 845 846 847 849 848 847 849 851 851 850 846 843 843 842 842 841 841 841 841 839 838 838 838 837 837 838
777 779 782 784 788 791 793 795 797 798 799 801 803 805 807 808 809 810 811 813 814 815 817 818 819 821 822 823 825 826 827 828 829 830 831 832 833 834 835 836 837 837 838 839 840 840 841 841 841 842 843 843 844 844 844 844 844 845 844 844 845 845 846 847 848 849 850 850 850 848 844 843 844 842 840 839 840 839 839 838 838 837 836 836 837